カタログに戻る

STARLINK-34429

運用中通信VLEO
NORAD 64464·PAYLOAD·🇺🇸 United States

打ち上げ Jun 18, 2025 から Cape Canaveral Space Force Station

Loading…

次のパス (今後24時間)

TLE

最新Source: CelesTrak SupGP

元期: Sep 14, 2026, 21:03 UTC

1 64464C 25130AC  26257.87756944  .00028697  00000+0  84810-3 0  2579
2 64464  53.1580 285.6593 0001185  89.6244  15.8468 15.34366928    14

AllMySatでSTARLINK-34429をリアルタイム追跡

Download on the App Store